[[{"header":{"parameterUnit":"m.s-1","parameterCategory":1,"la1":30.2992,"la2":30.254,"lo1":-89.0895,"lo2":-89.0443,"dy":0.0025,"dx":0.0025,"nx":19,"ny":19,"refTime":"2026-03-26T21:00:00:Z","depth":0,"parameterNumber":2,"parameterNumberName":"U-component_of_WINDS"},"data":[0,0,0,2.0898,2.09,2.0982,2.0982,2.109,2.1091,0,0,0,0,0,0,0,0,0,0,0,2.0873,2.0874,2.0898,2.09,2.0982,2.0982,2.109,2.1091,0,0,0,0,0,0,0,0,0,0,0,2.0873,2.0873,2.0874,2.09,2.0982,2.0982,2.1089,2.1027,0,0,0,0,0,0,0,0,0,0,2.0948,2.0922,2.0873,2.0874,2.0901,2.0982,2.0982,2.1024,2.1031,2.1053,0,2.107,0,2.1082,2.1098,2.1098,0,0,0,2.0902,2.0917,2.0939,2.0874,2.0902,2.0981,2.0945,2.1028,2.1036,2.1062,2.1071,2.1075,2.1084,2.1099,2.1099,2.1214,2.1214,0,0,2.0897,2.0888,2.0934,2.0944,2.0929,2.0943,2.0948,2.1033,2.1043,2.1072,2.1078,2.1085,2.1099,2.11,2.1213,2.1214,0,0,0,2.0883,2.0884,2.0905,2.094,2.0954,2.0945,2.0951,2.1039,2.1047,2.1079,2.1087,2.11,2.1101,2.1213,2.1214,2.1225,0,0,0,2.0881,2.0876,2.0903,2.0898,2.0953,2.0997,2.0955,2.1041,2.1051,2.1086,2.11,2.1102,2.1212,2.1213,2.1223,2.1232,0,0,0,2.0868,2.0875,2.0886,2.0897,2.0932,2.0996,2.1008,2.1043,2.1055,2.1098,2.1103,2.1212,2.1213,2.1222,2.123,2.1258,0,0,0,2.0853,2.0896,2.0886,2.0938,2.0931,2.1002,2.1008,2.1062,2.11,2.11,2.1212,2.1213,2.1222,2.1228,2.1257,2.1279,2.1287,0,0,2.0902,2.0902,2.0933,2.0927,2.0996,2.099,2.1063,2.1109,2.1124,2.1184,2.1187,2.1224,2.1229,2.1258,2.1341,2.1348,0,0,0,2.0946,2.0968,2.0989,2.1023,2.1058,2.1089,2.1124,2.1142,2.1193,2.1151,2.1243,2.1247,2.1264,2.1275,2.128,2.1296,2.1218,2.1218,2.1218,2.1001,2.1016,2.1069,2.1094,2.1129,2.1165,2.1194,2.1224,2.1231,2.1253,2.127,2.1318,2.1331,2.1335,2.1351,2.1284,2.1284,2.1284,2.1284,2.1074,2.1108,2.1115,2.1169,2.1186,2.1232,2.1271,2.1274,2.1321,2.1307,2.1322,2.1303,2.1342,2.1357,2.1285,2.1285,2.1285,2.1285,2.1285,2.111,2.1129,2.1148,2.1201,2.124,2.1266,2.1311,2.1326,2.134,2.1356,2.1376,2.1375,2.1376,2.1365,2.1365,2.1365,2.1365,2.1365,2.1365,2.1139,2.1161,2.1195,2.1237,2.1261,2.1296,2.1335,2.1361,2.1393,2.1401,2.1401,2.1405,2.1343,2.1326,2.1368,2.1367,2.1367,2.1367,2.1367,2.1205,2.1192,2.1245,2.127,2.1321,2.1359,2.1378,2.143,2.1454,2.1476,2.1478,2.143,2.1431,2.1426,2.1412,2.1474,2.1474,2.1474,2.1474,2.1234,2.1236,2.1294,2.1332,2.1372,2.1395,2.1457,2.1489,2.152,2.1537,2.1531,2.1514,2.1509,2.1513,2.1507,2.1494,2.1575,2.1575,2.1575,2.1275,2.1282,2.1329,2.1358,2.1399,2.1435,2.1494,2.154,2.1574,2.158,2.155,2.1545,2.1519,2.151,2.1512,2.1502,2.1479,0,0]},{"header":{"parameterUnit":"m.s-1","parameterCategory":1,"la1":30.2992,"la2":30.254,"lo1":-89.0895,"lo2":-89.0443,"dy":0.0025,"dx":0.0025,"nx":19,"ny":19,"refTime":"2026-03-26T21:00:00:Z","depth":0,"parameterNumber":3,"parameterNumberName":"V-component_of_WINDS"},"data":[0,0,0,2.8834,2.8837,2.8983,2.8984,2.9153,2.9154,0,0,0,0,0,0,0,0,0,0,0,2.8785,2.8786,2.8834,2.8837,2.8983,2.8984,2.9153,2.9154,0,0,0,0,0,0,0,0,0,0,0,2.8785,2.8786,2.8788,2.8838,2.8983,2.8984,2.9152,2.9047,0,0,0,0,0,0,0,0,0,0,2.8907,2.8859,2.8786,2.8788,2.8839,2.8983,2.8984,2.9042,2.9054,2.9081,0,2.9108,0,2.9134,2.9165,2.9165,0,0,0,2.884,2.885,2.8894,2.8788,2.884,2.8983,2.8918,2.9049,2.9062,2.9096,2.9111,2.9118,2.9137,2.9166,2.9167,2.9325,2.9326,0,0,2.8832,2.8808,2.8886,2.8903,2.8885,2.8913,2.8923,2.9057,2.907,2.9112,2.9122,2.914,2.9167,2.9168,2.9325,2.9326,0,0,0,2.8807,2.8802,2.8844,2.8895,2.8923,2.8918,2.8928,2.9064,2.908,2.9124,2.9142,2.9168,2.917,2.9324,2.9325,2.9334,0,0,0,2.8802,2.8788,2.884,2.8827,2.8921,2.8997,2.8932,2.907,2.9086,2.9141,2.9168,2.9171,2.9324,2.9325,2.9332,2.9341,0,0,0,2.8777,2.8785,2.8805,2.8825,2.8888,2.8995,2.9019,2.9074,2.9097,2.9166,2.9172,2.9323,2.9325,2.9331,2.9339,2.9375,0,0,0,2.8743,2.8809,2.8804,2.8885,2.8887,2.9001,2.9018,2.9104,2.9163,2.9169,2.9324,2.9325,2.933,2.9337,2.9373,2.9401,2.9411,0,0,2.8813,2.8817,2.8866,2.8866,2.8976,2.8981,2.909,2.9165,2.9191,2.9277,2.9282,2.9333,2.9339,2.9374,2.9475,2.9483,0,0,0,2.888,2.8914,2.8949,2.9007,2.9068,2.9119,2.9181,2.9208,2.9284,2.9233,2.9357,2.9361,2.9383,2.9397,2.9403,2.9422,2.9331,2.9331,2.9331,2.8943,2.8976,2.9057,2.9107,2.9162,2.9224,2.927,2.9316,2.9331,2.936,2.9385,2.9443,2.9459,2.9464,2.9483,2.9403,2.9403,2.9403,2.9403,2.9047,2.91,2.9119,2.9206,2.9237,2.9307,2.9368,2.9375,2.9442,2.9427,2.9448,2.9427,2.9471,2.949,2.9404,2.9404,2.9404,2.9404,2.9404,2.9091,2.9122,2.9156,2.9242,2.9302,2.9348,2.9412,2.9438,2.9462,2.9482,2.951,2.951,2.9512,2.9494,2.9494,2.9495,2.9495,2.9495,2.9495,2.9123,2.9161,2.9215,2.9285,2.9324,2.9378,2.9439,2.9476,2.9524,2.9537,2.9537,2.9546,2.9471,2.9451,2.9498,2.9498,2.9497,2.9497,2.9497,2.9213,2.9197,2.928,2.9319,2.9401,2.9457,2.949,2.9563,2.9597,2.9627,2.9632,2.9573,2.9577,2.9572,2.9555,2.9627,2.9627,2.9627,2.9627,2.9249,2.9255,2.9344,2.9405,2.9467,2.9504,2.959,2.9636,2.9681,2.9703,2.9696,2.9676,2.967,2.9678,2.967,2.9655,2.975,2.9751,2.9751,2.9306,2.9318,2.939,2.9438,2.9503,2.9556,2.9637,2.9701,2.9747,2.9756,2.972,2.9714,2.9683,2.9671,2.9679,2.9667,2.9639,0,0]}]]